Location: Unspecified
(40.7945°N, 111.1337°W)
Time: 11:56:36
(UTC-06:00)

Vanguard 2 - All Passes

Search period start: 25 June 2019 00:00
Search period end: 05 July 2019 00:00
Orbit: 553 x 2939 km, 32.9° (Epoch: 25 June)

Date Brightness Start Highest point End Pass type
(mag) Time Alt. Az. Time Alt. Az. Time Alt. Az.
25 Jun - 08:47:44 10° SW 08:51:44 29° SSE 08:57:14 10° ESE daylight
25 Jun - 10:54:17 10° WSW 10:59:44 45° S 11:08:30 10° ESE daylight
25 Jun - 13:01:53 10° WSW 13:08:48 35° SSW 13:19:29 10° SE daylight
25 Jun - 15:12:02 10° WSW 15:18:39 18° SSW 15:27:04 10° S daylight
26 Jun - 07:01:05 10° SSE 07:02:11 11° SSE 07:03:20 10° SE daylight
26 Jun - 09:05:17 10° SW 09:09:27 34° SSE 09:15:22 10° ESE daylight
26 Jun - 11:12:08 10° WSW 11:17:38 42° S 11:26:23 10° ESE daylight
26 Jun - 13:20:06 10° WSW 13:26:46 29° SSW 13:36:36 10° SSE daylight
26 Jun - 15:32:31 10° SW 15:36:38 12° SSW 15:41:20 10° S daylight
27 Jun - 07:17:15 10° SSW 07:19:46 16° SSE 07:22:36 10° ESE daylight
27 Jun - 09:22:57 10° WSW 09:27:14 37° S 09:33:25 10° ESE daylight
27 Jun - 11:30:03 10° WSW 11:35:33 37° S 11:44:07 10° SE daylight
27 Jun - 13:38:36 10° WSW 13:44:45 22° SSW 13:53:16 10° SSE daylight
28 Jun - 07:34:20 10° SSW 07:37:25 21° SSE 07:41:03 10° ESE daylight
28 Jun - 09:40:43 10° WSW 09:45:03 37° S 09:51:23 10° ESE daylight
28 Jun - 11:48:05 10° WSW 11:53:29 31° SSW 12:01:37 10° SE daylight
28 Jun - 13:57:39 10° WSW 14:02:44 16° SSW 14:09:14 10° S daylight
29 Jun - 07:51:45 10° SW 07:55:08 26° SSE 07:59:14 10° ESE daylight
29 Jun - 09:58:33 10° WSW 10:02:54 36° S 10:09:15 10° ESE daylight
29 Jun - 12:06:16 10° WSW 12:11:25 25° SSW 12:18:50 10° SE daylight
29 Jun - 14:18:24 10° SW 14:20:44 11° SSW 14:23:19 10° SSW daylight
30 Jun - 06:03:58 10° S 06:05:27 12° SSE 06:06:56 10° SE daylight
30 Jun - 08:09:20 10° SW 08:12:54 29° S 08:17:16 10° ESE daylight
30 Jun - 10:16:28 10° WSW 10:20:47 32° S 10:27:00 10° SE daylight
30 Jun - 12:24:46 10° WSW 12:29:23 19° SSW 12:35:37 10° SSE daylight
01 Jul - 06:20:35 10° SSW 06:23:10 16° SSE 06:25:46 10° ESE daylight
01 Jul - 08:27:04 10° WSW 08:30:42 31° S 08:35:14 10° ESE daylight
01 Jul - 10:34:28 10° WSW 10:38:40 27° S 10:44:32 10° SE daylight
01 Jul - 12:43:53 10° SW 12:47:21 14° SSW 12:51:35 10° S daylight
02 Jul - 06:37:50 10° SW 06:40:55 21° SSE 06:44:03 10° ESE daylight
02 Jul - 08:44:54 10° WSW 08:48:31 30° S 08:53:05 10° ESE daylight
02 Jul - 10:52:40 10° WSW 10:56:33 22° SSW 11:01:48 10° SSE daylight
03 Jul - 04:49:42 10° S 04:51:02 11° SSE 04:52:19 10° SE visible
03 Jul - 06:55:22 10° SW 06:58:42 25° S 07:02:06 10° ESE daylight
03 Jul - 09:02:48 10° WSW 09:06:21 27° S 09:10:49 10° SE daylight
03 Jul - 11:11:13 10° SW 11:14:29 16° SSW 11:18:35 10° SSE daylight
04 Jul - 05:06:01 10° SSW 05:08:51 16° SSE 05:11:22 10° SE visible
04 Jul - 07:13:04 10° SW 07:16:30 27° S 07:20:03 10° ESE daylight
04 Jul - 09:20:49 10° WSW 09:24:12 23° S 09:28:22 10° SE daylight
04 Jul - 11:30:46 10° SW 11:32:25 11° SSW 11:34:13 10° S daylight
